{"data":{"norad_id":69077,"intl_designator":"2026-104E","name":"QIANFAN-131","alt_names":[],"object_type":"PAYLOAD","status":"ACTIVE","operator":null,"country":"PRC","launch_date":"2026-05-12","launch_site_code":"TAISC","launch_vehicle":null,"mission":null,"orbit_class":"UNKNOWN","rcs_meters":null,"size_class":null,"mass_kg":null,"dimensions":null,"purposes":[],"wikipedia_slug":null,"has_3d_model":false,"image_url":null,"decayed_at":null,"tle_current":{"epoch":"2026-05-25T04:29:04.178688Z","epoch_age_seconds":73100,"freshness":"FRESH","line1":"1 69077U 26104E   26145.18685392  .00000082  00000+0  31266-4 0  9993","line2":"2 69077  88.9867 344.2469 0002724 168.7424 191.3827 14.20503190  1823","mean_motion":14.2050319,"eccentricity":0.0002724,"inclination_deg":88.9867,"raan_deg":344.2469,"arg_perigee_deg":168.7424,"mean_anomaly_deg":191.3827,"bstar":3.1266e-5,"rev_number":182,"period_min":101.37252842072,"perigee_km":821.68977869091,"apogee_km":825.61331309071,"semimajor_km":7201.7885458908,"source":"CELESTRAK","updated_at":"2026-05-25T13:38:09.049745Z"}}}